719  
ASUS46 KPDT 241325  
RWRPDT  
PENDLETON REGIONAL WEATHER ROUNDUP  
NATIONAL WEATHER SERVICE PENDLETON OREGON  
600 AM PDT TUE MAY 24 2016  
 
NOTE: FAIR INDICATES FEW OR NO CLOUDS BELOW 12,000 FEET WITH NO  
SIGNIFICANT WEATHER AND/OR S TO VISIBILITY
.  
 
# INDICATES UNOFFICIAL STATION AND DATA  
 
WAZ520-241410-  
EAST SLOPES OF WASHINGTON CASCADES  
 
CITY SKY/WX TMP DP RH WIND PRES REMARKS
 
#CLE ELUM HS N/A 47 41 79 W2 29.85R  
#CLE ELUM 2NW N/A 44 40 86 NW1 N/A  
#GLENWOOD N/A 33 32 96 CALM 29.89R  
#MANASTASH CYN N/A 46 36 68 CALM 29.85R  
#NELSON 3SW N/A 47 41 79 CALM 30.06S  
#NILE N/A 40 38 92 CALM 29.15S  
#RONALD 2NW N/A 45 N/A N/A N1 29.75S  
#TEANAWAY 4NE N/A 38 38 100 CALM N/A  
#TROUT LAKE 1NE N/A 41 38 89 CALM 29.88R  
#TROUT LAKE 1E N/A 40 38 92 CALM 29.86S  

 
 
WAZ521-241410-  
SIMCOE HIGHLANDS  
 
CITY SKY/WX TMP DP RH WIND PRES REMARKS
 
#GOLDENDALE 1NE N/A 39 32 76 N3 N/A  
#GOLDENDALE 4W N/A 43 42 96 CALM 29.92S  
#GOODNOE HILLS N/A 50 47 89 NW6 29.80R  
#LYLE 6NE N/A 50 47 89 S3 29.85R  

 
 
WAZ026-241410-  
KITTITAS VALLEY  
 
CITY SKY/WX TMP DP RH WIND PRES REMARKS
 
ELLENSBURG AP SUNNY 51 40 66 NW12 29.86S  
#ELLENSBURG CWU N/A 50 42 74 N6 29.79R  
#ELLENSBURG 3NE N/A 50 42 74 N5 29.88R  
#ELLENSBURG N/A 52 46 80 W2 N/A  
#ELLENSBURG 13S N/A 44 41 89 CALM N/A  
#KITTITAS 4N N/A 43 37 79 E2 29.91R  
#KITTITAS 3S N/A 43 40 89 CALM 29.85R  
#THORP 6N N/A 45 40 82 NW12 29.87R WCI 39  

 
 
WAZ027-241410-  
YAKIMA VALLEY  
 
CITY SKY/WX TMP DP RH WIND PRES REMARKS
 
SUNNYSIDE AP SUNNY 43 40 89 CALM 29.88R  
YAKIMA AIRPORT SUNNY 44 37 76 W5 29.87S  
YAKIMA-VAGABOND SUNNY 45 39 79 NE3 29.85R  
#DONALD 2NE N/A 57 26 30 CALM 28.72S  
#GRANDVIEW N/A 46 39 76 CALM 29.87S  
#MABTON N/A 46 42 86 CALM 29.87S  
#NACHES 2SW N/A 52 43 71 W6 29.86S  
#TERRACE HTS N/A 46 40 79 CALM 29.81S  
#TOPPENISH N/A 48 43 83 CALM 29.78R  
#WEST VALLEY N/A 46 40 79 CALM 29.83S  
#WHITE SWAN 5E N/A 41 39 93 CALM 29.86S  
#WILEY CITY 3W N/A 48 37 65 CALM 29.84R  

 
 
WAZ028-241410-  
LOWER COLUMBIA BASIN...WASHINGTON  
 
CITY SKY/WX TMP DP RH WIND PRES REMARKS
 
HANFORD MOSUNNY 51 38 61 NW6 29.86R  
PASCO PTCLDY 54 46 74 S6 29.88R  
PROSSER AWOS N/A 46 43 89 SE2 29.91R  
RICHLAND AWOS PTCLDY 52 46 80 CALM 29.88R  
#BENTON CITY N/A 47 41 79 CALM 29.77R  
#CONNELL 5N N/A 49 44 83 CALM 29.85S  
#CONNELL 5NW N/A 48 44 86 CALM 29.81S  
#ELTOPIA 6NW N/A 48 44 86 CALM 28.84R  
#KAHLOTUS N/A 51 45 80 W6 29.85R  
#KENNEWICK 3S N/A 52 46 80 N5 29.86R  
#PATERSON N/A 50 46 86 CALM 29.85S  
#SAGEMOOR 2W N/A 49 44 83 CALM 29.71R  
#TOUCHET 2S N/A 55 46 72 N1 29.85R  
#WEST PASCO N/A 51 43 74 CALM 29.91R  

 
 
WAZ029-241410-  
FOOTHILLS OF THE BLUES...WASHINGTON  
 
CITY SKY/WX TMP DP RH WIND PRES REMARKS
 
WALLA WALLA AP CLOUDY 52 43 71 SW6 29.89S  
#CLYDE 6NW N/A 51 45 80 S6 29.86R  
#LOWDEN 2SE N/A 49 45 86 E1 29.85S  
#PLEASANT VIEW 1N/A 49 44 83 S7 29.89R  
#PRESCOTT N/A 54 47 77 CALM 29.86R  
#SUDBURY N/A 62 N/A N/A CALM N/A  
#WHITMAN COLLEGEN/A 55 44 66 S3 29.92S  
#WAITSBURG 8N N/A 51 24 34 S6 29.76R  
#WALLA WALLA 5E N/A 54 46 74 S5 N/A  
#WALLA WALLA U N/A 56 45 66 CALM 29.87S  
#WHITMAN MISSIONN/A 51 46 83 CALM 29.89R  

 
 
WAZ030-241410-  
BLUE MOUNTAINS...WASHINGTON  
 
CITY SKY/WX TMP DP RH WIND PRES REMARKS
 
#DIXIE 5SE N/A 48 41 77 S6 29.83R  

 
 
ORZ009-041-WAZ024-241410-  
COLUMBIA RIVER GORGE  
 
CITY SKY/WX TMP DP RH WIND PRES REMARKS
 
HOOD RIVER AP CLOUDY 50 46 86 CALM 29.91R  
THE DALLES AP SUNNY 52 46 80 CALM 29.89R  
#ARLINGTON AIRPON/A 50 46 86 W5 29.88S  
#CELILO DOT N/A 57 47 69 SW5 N/A  
#LYLE N/A 56 50 80 NE6 29.90R  
#MARYHILL 2W N/A 54 51 90 SW3 N/A  
#MOSIER 1S N/A 53 44 71 CALM 29.88S  
#MURDOCK N/A 56 50 80 W3 29.86R  
#RUFUS DOT N/A 57 49 75 N1 N/A  
#SMITHIVILLE N/A 55 50 83 W2 29.81F  
 

 
 
ORZ510-241410-  
NORTH CENTRAL OREGON  
 
CITY SKY/WX TMP DP RH WIND PRES REMARKS
 
#ANTELOPE N/A 40 38 92 NE2 29.77S  
#CHENOWITH 1W N/A 49 47 93 NW15 N/A WCI 43  
#COW CYN RST AREN/A 47 42 83 SW1 N/A  
#DUFUR 9E N/A 50 42 74 W7 29.92S  
#GRASS VALLEY N/A 43 43 100 S3 N/A  
#GRASS VALLEY 1SN/A 43 41 93 CALM 29.86S  
#KENT DOT N/A 44 37 76 N6 N/A  
#MAUPIN SCHOOL N/A 48 41 77 CALM 29.95R  
#MORO SCHOOL N/A 46 44 93 SW6 29.90S  
#SHANIKO 4NW N/A 45 -58 1 SW3 29.91S  
#TYGH VALLEY 2NEN/A 45 42 89 CALM 29.89R  
#WAPANITIA AIRPON/A 50 44 80 CALM 29.89S  
#WASCO DOT N/A 47 42 83 SW2 N/A  
#WASCO AIRPORT N/A 48 41 77 SW1 N/A  
#WASCO 5NE N/A 48 44 86 CALM 29.87R  

 
 
ORZ511-241410-  
CENTRAL OREGON  
 
CITY SKY/WX TMP DP RH WIND PRES REMARKS
 
BEND AIRPORT PTCLDY 43 39 86 CALM 29.93S  
MADRAS AIRPORT CLOUDY 50 50 100 SW3 29.94S  
PRINEVILLE AP PTCLDY 39 39 100 S3 29.94R  
REDMOND AIRPORT PTCLDY 40 37 89 S5 29.93S  
#ASHWOOD SCHOOL N/A 46 40 79 S7 29.89F  
#BEND 1SW N/A 37 35 92 N1 N/A  
#BEND-AWBREY N/A 43 40 89 SW3 29.90S  
#BEND-KIM LN N/A 41 38 89 S6 29.91S  
#CULVER N/A 44 40 86 CALM 29.86S  
#CULVER 8W N/A 41 40 96 CALM 29.93S  
#LAKE BILLY CHINN/A 43 N/A N/A CALM 30.02R  
#MADRAS 4S N/A 48 30 49 CALM 30.00R  
#POWELL BUTTE 3EN/A 38 37 96 SE2 N/A  
#POWELL BUTTE N/A 44 39 82 SE2 29.81S  
#PRINEVILLE 3N N/A 41 39 93 CALM 29.89R  
#WARM SPRINGS N/A 50 44 80 CALM 29.90S  
 

 
 
 
ORZ509-241410-  
EAST SLOPES OF OREGON CASCADES  
 
CITY SKY/WX TMP DP RH WIND PRES REMARKS
 
SISTERS AWOS N/A 37 34 89 CALM 29.91F  
#BLUE BOX PASS N/A 42 N/A N/A CALM N/A  
#CAMP SHERMAN N/A 34 31 89 CALM 29.99S  
#LA PINE DOT N/A 30 29 96 SE2 N/A  
#LA PINE 4NW N/A 29 26 88 CALM 29.97R  
#LAVA BUTTE DOT N/A 33 31 92 S5 N/A  
#SISTERS AIRPOR N/A 32 32 100 CALM 30.17S  
#SISTERS ODOT N/A 36 N/A N/A CALM N/A  
#SISTERS 1NW N/A 36 33 89 E2 N/A  
#SISTERS 3N N/A 36 30 79 CALM 29.94S  
#SUNRIVER N/A 34 33 96 CALM 29.93S  
#SUTTLE LK DOT N/A 38 38 100 CALM N/A  
#TUMALO 3W N/A 43 37 79 W3 29.78S  
#WANOGA BUTTE D N/A 35 35 100 SW1 N/A  
 

 
 
ORZ044-241410-  
LOWER COLUMBIA BASIN...OREGON  
 
CITY SKY/WX TMP DP RH WIND PRES REMARKS
 
HERMISTON SUNNY 47 42 83 S7 29.88S  
#BOARDMAN SCHOOLN/A 50 44 80 S1 29.88S  
#BOARDMAN 8SW N/A 49 43 80 S5 29.86  
#ECHO 8SW N/A 50 44 80 SW2 29.88F  
#I-84 EX 198 DOTN/A 51 42 71 NE6 N/A  
#UMATILLA SCHOOLN/A 46 46 100 CALM 29.93S  
#UMATILLA N/A 49 41 74 CALM 29.81S  

 
 
ORZ507-241410-  
NORTHERN FOOTHILLS OF THE BLUES  
 
CITY SKY/WX TMP DP RH WIND PRES REMARKS
 
PENDLETON AIRPT PTCLDY 48 40 74 S6 29.89S  
#ADAMS 3WNW N/A 42 40 93 CALM 29.89R  
#ATHENA N/A 47 42 83 CALM 29.90S  
#CAYUSE N/A 48 42 80 E3 29.88R  
#HELIX SCHOOL N/A 42 39 89 CALM 29.88R  
#HELIX 3N N/A 47 42 83 N8 29.87R  
#HOLDMAN 5SE N/A 47 43 86 CALM 29.89R  
#HOLDMAN 6E N/A 45 41 86 NW1 29.68S  
#M-F GROVE ELEM N/A 55 41 59 SE2 29.87S  
#M-FREEWATER 5SEN/A 51 43 74 CALM 29.90R  
#PENDLETON DNTN N/A 45 34 65 E2 29.92S  
#PDT AQUATIC CTRN/A 47 33 58 CALM 29.93S  
#PDT SUNRIDGE N/A 47 42 83 CALM 29.91S  
#PENDLETON 7NW N/A 43 38 82 CALM 32.29S  
#PILOT ROCK 1S N/A 47 38 71 CALM 29.91S  
#PILOT ROCK N/A 47 39 74 NE1 29.92S  
#TUTUILLA N/A 45 41 86 CALM 29.90S  
#UMAPINE 2E N/A 55 46 72 CALM 29.86S  
#WESTON SCHOOL N/A 51 41 68 NW5 29.81S  
 

 
 
ORZ508-241410-  
SOUTHERN FOOTHILLS OF THE BLUES  
 
CITY SKY/WX TMP DP RH WIND PRES REMARKS
 
LEXINGTON SUNNY 50 43 77 CALM 29.93S  
#AJAX N/A 49 37 63 SE2 27.66S  
#CONDON SCHOOL N/A 42 39 89 SW1 29.88S  
#CONDON 5W N/A 44 38 79 SW6 29.89S  
#FOSSIL SCHOOL N/A 39 37 92 CALM 29.88S  
#HEPPNER EOC N/A 47 40 76 CALM 29.82S  
#HEPPNER 4NE N/A 46 40 79 S1 29.87S  
#LEXINGTON 2SE N/A 50 42 74 S6 29.86F  
#RUGGS 5NE N/A 46 42 86 S2 30.07S  
#RUGGS 2SW N/A 46 40 79 SW5 29.90S  
 

 
 
ORZ502-503-241410-  
BLUE MOUNTAINS  
 
CITY SKY/WX TMP DP RH WIND PRES REMARKS
 
MEACHAM PTCLDY 35 32 89 CALM 29.91S  
#BATTLE MTN DOT N/A 40 40 100 S6 N/A  
#CUTSFORTH PARK N/A 33 32 96 CALM 29.69S  
#GREENHORN 9SW N/A 29 28 96 CALM 26.15S  
#HARDMAN 10S N/A 61 34 36 N5 30.22R  
#HEPPNER 15SE N/A 36 36 100 CALM 29.81R  
#LADD CYN SMT N/A 40 37 89 CALM N/A  
#LADD CREEK ODOTN/A 41 38 89 SW2 N/A  
#LONG CREEK HS N/A 39 39 100 CALM N/A  
#N POWDER DOT N/A 38 37 96 S2 N/A  
#PIKES PEAK N/A 46 40 79 SW14 27.99S WCI 40  
#TOLLGATE N/A 39 38 96 SW1 29.79S  
#TROY SCHOOL N/A 49 43 80 CALM 29.73R  
#UKIAH N/A 40 38 92 CALM 29.81S  
#WESTON 4E N/A 45 40 82 SE3 29.84S  

 
 
ORZ505-241410-  
JOHN DAY BASIN  
 
CITY SKY/WX TMP DP RH WIND PRES REMARKS
 
JOHN DAY MOCLDY 41 37 86 E6 29.94R  
#DAYVILLE SCHOOLN/A 43 38 82 CALM 29.92R  
#MITCHELL N/A 41 40 96 CALM 30.08S  
#MITCHELL 8NW N/A 47 39 74 SW1 30.08S  
#MONUMENT HS N/A 46 40 79 CALM 29.90S  
#MT. VERNON 5SE N/A 40 37 89 CALM 29.89R  
#SPRAY SCHOOL N/A 41 N/A N/A CALM N/A  
#WINLOCK N/A 43 39 86 CALM 29.89S  

 
 
ORZ506-241410-  
OCHOCO AND JOHN DAY HIGHLANDS  
 
CITY SKY/WX TMP DP RH WIND PRES REMARKS
 
#BUCK CREEK DOT N/A 41 39 93 SW5 N/A  
#HORSE RIDGE DO N/A 30 29 96 N1 N/A  
#KEYES SMT DOT N/A 40 36 85 N6 N/A  
#PAULINA SCHOOL N/A 37 35 92 NE2 N/A  
#PINE MTN OBS N/A 35 34 96 CALM N/A  
#PRAIRIE CITY N/A 34 32 92 CALM 30.08R  
#SENECA 9NW N/A 28 27 96 CALM 29.91S  

 
 
ORZ049-241410-  
GRANDE RONDE VALLEY  
 
CITY SKY/WX TMP DP RH WIND PRES REMARKS
 
LA GRANDE MOCLDY 43 34 70 CALM 29.91R  
#COVE N/A 46 42 86 CALM 29.95R  
#COVE SCHOOL N/A 46 40 79 CALM 29.94R  
#COVE 6NW N/A 40 37 89 CALM 29.80R  
#ELGIN 3N N/A 40 37 89 CALM 29.89S  
#ELGIN 1E N/A 41 36 82 CALM N/A  
#ISLAND CITY 4N N/A 49 48 96 CALM 29.96S  
#LADD CYN DOT N/A 45 39 79 SE7 N/A  
#UNION 1S N/A 42 38 86 CALM 29.81R  

 
 
ORZ050-241410-  
WALLOWA COUNTY  
 
CITY SKY/WX TMP DP RH WIND PRES REMARKS
 
#ENTERPRISE AP N/A 49 29 46 CALM 29.86R  
#ENTERPRISE HS N/A 40 38 92 CALM 29.94S  
#IMNAHA SCHOOL N/A 49 44 83 S2 29.91R  
#IMNAHA 10S N/A 45 40 82 SW3 29.91S  
#JOSEPH 3N N/A 39 34 82 CALM 29.94S  
#JOSEPH 3W N/A 44 38 79 CALM 29.75S  
#LOSTINE N/A 40 38 92 CALM 29.70R  
#LOSTINE 3SE N/A 41 38 89 S1 29.91S  
#MT HOWARD 8000 N/A 32 26 78 W2 29.92F  
#PROMISE 1S N/A 44 38 79 CALM 29.96R  
#WALLOWA SCHOOL N/A 40 38 92 CALM 29.90R  
 

 
 
CLICK HERE TO GO TO PREVIOUS BULLETINS.

The Nexlab OR Page
The Nexlab WA Page Main Text Page